Time,TemperatureF,DewpointF,PressureIn,WindDirection,WindDirectionDegrees,WindSpeedMPH,WindSpeedGustMPH,Humidity,HourlyPrecipIn,Conditions,Clouds,dailyrainin,SolarRadiationWatts/m^2,SoftwareType,DateUTC
2013-04-26 00:01:00,34.1,29.5,30.24,North,32767,0.0,0.0,83,0.00,,,0.00,0,Wunderground v.1.15,2013-04-26 04:01:00,
2013-04-26 00:02:00,34.0,29.4,30.24,North,32767,0.0,0.0,83,0.00,,,0.00,0,Wunderground v.1.15,2013-04-26 04:02:00,
2013-04-26 00:04:00,34.0,29.4,30.24,North,32767,0.0,0.0,83,0.00,,,0.00,0,Wunderground v.1.15,2013-04-26 04:04:00,
2013-04-26 00:06:00,33.9,29.3,30.24,North,32767,0.0,0.0,83,0.00,,,0.00,0,Wunderground v.1.15,2013-04-26 04:06:00,
2013-04-26 00:07:00,33.9,29.3,30.24,North,32767,0.0,0.0,83,0.00,,,0.00,0,Wunderground v.1.15,2013-04-26 04:07:00,
2013-04-26 00:12:00,33.8,29.2,30.24,North,32767,0.0,0.0,83,0.00,,,0.00,0,Wunderground v.1.15,2013-04-26 04:12:00,
2013-04-26 00:17:00,33.6,29.3,30.24,North,32767,0.0,0.0,84,0.00,,,0.00,0,Wunderground v.1.15,2013-04-26 04:17:00,
2013-04-26 00:22:00,33.4,28.8,30.24,North,32767,0.0,0.0,83,0.00,,,0.00,0,Wunderground v.1.15,2013-04-26 04:22:00,
2013-04-26 00:27:00,33.2,28.9,30.24,North,32767,0.0,0.0,84,0.00,,,0.00,0,Wunderground v.1.15,2013-04-26 04:27:00,
2013-04-26 00:32:00,33.1,29.1,30.25,North,32767,0.0,0.0,85,0.00,,,0.00,0,Wunderground v.1.15,2013-04-26 04:32:00,
2013-04-26 00:37:00,32.9,28.9,30.25,North,32767,0.0,0.0,85,0.00,,,0.00,0,Wunderground v.1.15,2013-04-26 04:37:00,
2013-04-26 00:42:00,32.8,29.4,30.25,North,32767,0.0,0.0,87,0.00,,,0.00,0,Wunderground v.1.15,2013-04-26 04:42:00,
2013-04-26 00:48:00,32.6,29.2,30.26,North,32767,0.0,0.0,87,0.00,,,0.00,0,Wunderground v.1.15,2013-04-26 04:48:00,
2013-04-26 00:53:00,32.6,29.2,30.25,North,32767,0.0,0.0,87,0.00,,,0.00,0,Wunderground v.1.15,2013-04-26 04:53:00,
2013-04-26 00:58:00,32.5,29.1,30.26,North,32767,0.0,0.0,87,0.00,,,0.00,0,Wunderground v.1.15,2013-04-26 04:58:00,
2013-04-26 01:03:00,32.4,29.0,30.25,North,32767,0.0,0.0,87,0.00,,,0.00,0,Wunderground v.1.15,2013-04-26 05:03:00,
2013-04-26 01:08:00,32.2,28.8,30.26,North,32767,0.0,0.0,87,0.00,,,0.00,0,Wunderground v.1.15,2013-04-26 05:08:00,
2013-04-26 01:13:00,32.1,28.9,30.26,North,32767,0.0,0.0,88,0.00,,,0.00,0,Wunderground v.1.15,2013-04-26 05:13:00,
2013-04-26 01:18:00,32.0,28.8,30.26,North,32767,0.0,0.0,88,0.00,,,0.00,0,Wunderground v.1.15,2013-04-26 05:18:00,
2013-04-26 01:23:00,31.9,28.8,30.26,North,32767,0.0,0.0,88,0.00,,,0.00,0,Wunderground v.1.15,2013-04-26 05:23:00,
2013-04-26 01:29:00,31.7,28.6,30.27,North,32767,0.0,0.0,88,0.00,,,0.00,0,Wunderground v.1.15,2013-04-26 05:29:00,
2013-04-26 01:34:00,31.6,28.5,30.27,North,32767,0.0,0.0,88,0.00,,,0.00,0,Wunderground v.1.15,2013-04-26 05:34:00,
2013-04-26 01:39:00,31.4,28.3,30.27,North,32767,0.0,0.0,88,0.00,,,0.00,0,Wunderground v.1.15,2013-04-26 05:39:00,
2013-04-26 01:44:00,31.3,28.4,30.27,North,32767,0.0,0.0,89,0.00,,,0.00,0,Wunderground v.1.15,2013-04-26 05:44:00,
2013-04-26 01:49:00,31.2,28.3,30.27,North,32767,0.0,0.0,89,0.00,,,0.00,0,Wunderground v.1.15,2013-04-26 05:49:00,
2013-04-26 01:54:00,31.1,28.2,30.27,North,32767,0.0,0.0,89,0.00,,,0.00,0,Wunderground v.1.15,2013-04-26 05:54:00,
2013-04-26 01:59:00,31.0,28.4,30.27,North,32767,0.0,0.0,90,0.00,,,0.00,0,Wunderground v.1.15,2013-04-26 05:59:00,
2013-04-26 02:04:00,30.9,28.3,30.27,North,32767,0.0,0.0,90,0.00,,,0.00,0,Wunderground v.1.15,2013-04-26 06:04:00,
2013-04-26 02:09:00,30.7,28.1,30.27,North,32767,0.0,0.0,90,0.00,,,0.00,0,Wunderground v.1.15,2013-04-26 06:09:00,
2013-04-26 02:14:00,30.7,28.1,30.27,North,32767,0.0,0.0,90,0.00,,,0.00,0,Wunderground v.1.15,2013-04-26 06:14:00,
2013-04-26 02:20:00,30.5,27.9,30.27,North,32767,0.0,0.0,90,0.00,,,0.00,0,Wunderground v.1.15,2013-04-26 06:20:00,
2013-04-26 02:25:00,30.4,27.8,30.27,North,32767,0.0,0.0,90,0.00,,,0.00,0,Wunderground v.1.15,2013-04-26 06:25:00,
2013-04-26 02:30:00,30.3,27.7,30.27,North,32767,0.0,0.0,90,0.00,,,0.00,0,Wunderground v.1.15,2013-04-26 06:30:00,
2013-04-26 02:35:00,30.2,27.6,30.27,North,32767,0.0,0.0,90,0.00,,,0.00,0,Wunderground v.1.15,2013-04-26 06:35:00,
2013-04-26 02:40:00,30.1,27.5,30.27,North,32767,0.0,0.0,90,0.00,,,0.00,0,Wunderground v.1.15,2013-04-26 06:40:00,
2013-04-26 02:45:00,30.0,27.4,30.26,North,32767,0.0,0.0,90,0.00,,,0.00,0,Wunderground v.1.15,2013-04-26 06:45:00,
2013-04-26 02:50:00,29.9,27.3,30.26,North,32767,0.0,0.0,90,0.00,,,0.00,0,Wunderground v.1.15,2013-04-26 06:50:00,
2013-04-26 02:55:00,29.8,27.5,30.26,North,32767,0.0,0.0,91,0.00,,,0.00,0,Wunderground v.1.15,2013-04-26 06:55:00,
2013-04-26 03:00:00,29.8,27.5,30.26,North,32767,0.0,0.0,91,0.00,,,0.00,0,Wunderground v.1.15,2013-04-26 07:00:00,
2013-04-26 03:05:00,29.8,27.8,30.26,North,32767,0.0,0.0,92,0.00,,,0.00,0,Wunderground v.1.15,2013-04-26 07:05:00,
2013-04-26 03:10:00,29.8,27.8,30.26,North,32767,0.0,0.0,92,0.00,,,0.00,0,Wunderground v.1.15,2013-04-26 07:10:00,
2013-04-26 03:15:00,29.9,27.9,30.26,North,32767,0.0,0.0,92,0.00,,,0.00,0,Wunderground v.1.15,2013-04-26 07:15:00,
2013-04-26 03:20:00,30.0,28.0,30.26,North,32767,0.0,0.0,92,0.00,,,0.00,0,Wunderground v.1.15,2013-04-26 07:20:00,
2013-04-26 03:26:00,29.9,27.9,30.26,North,32767,0.0,0.0,92,0.00,,,0.00,0,Wunderground v.1.15,2013-04-26 07:26:00,
2013-04-26 03:31:00,29.9,27.9,30.26,North,32767,0.0,0.0,92,0.00,,,0.00,0,Wunderground v.1.15,2013-04-26 07:31:00,
2013-04-26 03:36:00,29.9,27.9,30.26,North,32767,0.0,0.0,92,0.00,,,0.00,0,Wunderground v.1.15,2013-04-26 07:36:00,
2013-04-26 03:41:00,29.8,27.8,30.26,North,32767,0.0,0.0,92,0.00,,,0.00,0,Wunderground v.1.15,2013-04-26 07:41:00,
2013-04-26 03:47:00,29.8,27.8,30.26,North,32767,0.0,0.0,92,0.00,,,0.00,0,Wunderground v.1.15,2013-04-26 07:47:00,
2013-04-26 03:52:00,29.8,27.8,30.27,North,32767,0.0,0.0,92,0.00,,,0.00,0,Wunderground v.1.15,2013-04-26 07:52:00,
2013-04-26 03:57:00,29.8,27.8,30.27,North,32767,0.0,0.0,92,0.00,,,0.00,0,Wunderground v.1.15,2013-04-26 07:57:00,
2013-04-26 04:02:00,29.9,28.1,30.27,North,32767,0.0,0.0,93,0.00,,,0.00,0,Wunderground v.1.15,2013-04-26 08:02:00,
2013-04-26 04:08:00,30.0,28.2,30.27,North,32767,0.0,0.0,93,0.00,,,0.00,0,Wunderground v.1.15,2013-04-26 08:08:00,
2013-04-26 04:13:00,30.0,28.2,30.27,North,32767,0.0,0.0,93,0.00,,,0.00,0,Wunderground v.1.15,2013-04-26 08:13:00,
2013-04-26 04:18:00,30.0,28.2,30.27,North,32767,0.0,0.0,93,0.00,,,0.00,0,Wunderground v.1.15,2013-04-26 08:18:00,
2013-04-26 04:23:00,30.1,28.3,30.27,North,32767,0.0,0.0,93,0.00,,,0.00,0,Wunderground v.1.15,2013-04-26 08:23:00,
2013-04-26 04:28:00,30.1,28.3,30.27,North,32767,0.0,0.0,93,0.00,,,0.00,0,Wunderground v.1.15,2013-04-26 08:28:00,
2013-04-26 04:33:00,30.1,28.3,30.27,North,32767,0.0,0.0,93,0.00,,,0.00,0,Wunderground v.1.15,2013-04-26 08:33:00,
2013-04-26 04:38:00,30.2,28.4,30.27,North,32767,0.0,0.0,93,0.00,,,0.00,0,Wunderground v.1.15,2013-04-26 08:38:00,
2013-04-26 04:43:00,30.1,28.3,30.27,North,32767,0.0,0.0,93,0.00,,,0.00,0,Wunderground v.1.15,2013-04-26 08:43:00,
2013-04-26 04:48:00,30.1,28.3,30.27,North,32767,0.0,0.0,93,0.00,,,0.00,0,Wunderground v.1.15,2013-04-26 08:48:00,
2013-04-26 04:53:00,30.1,28.3,30.28,North,32767,0.0,0.0,93,0.00,,,0.00,0,Wunderground v.1.15,2013-04-26 08:53:00,
2013-04-26 04:59:00,30.0,28.2,30.28,North,32767,0.0,0.0,93,0.00,,,0.00,0,Wunderground v.1.15,2013-04-26 08:59:00,
2013-04-26 05:04:00,29.9,28.1,30.28,North,32767,0.0,0.0,93,0.00,,,0.00,0,Wunderground v.1.15,2013-04-26 09:04:00,
2013-04-26 05:09:00,29.7,27.7,30.28,North,32767,0.0,0.0,92,0.00,,,0.00,0,Wunderground v.1.15,2013-04-26 09:09:00,
2013-04-26 05:14:00,29.6,27.6,30.28,North,32767,0.0,0.0,92,0.00,,,0.00,0,Wunderground v.1.15,2013-04-26 09:14:00,
2013-04-26 05:19:00,29.5,27.5,30.28,North,32767,0.0,0.0,92,0.00,,,0.00,0,Wunderground v.1.15,2013-04-26 09:19:00,
2013-04-26 05:24:00,29.4,27.4,30.28,North,32767,0.0,0.0,92,0.00,,,0.00,0,Wunderground v.1.15,2013-04-26 09:24:00,
2013-04-26 05:29:00,29.3,27.5,30.28,North,32767,0.0,0.0,93,0.00,,,0.00,0,Wunderground v.1.15,2013-04-26 09:29:00,
2013-04-26 05:34:00,29.2,27.4,30.28,North,32767,0.0,0.0,93,0.00,,,0.00,0,Wunderground v.1.15,2013-04-26 09:34:00,
2013-04-26 05:39:00,29.2,27.4,30.28,North,32767,0.0,0.0,93,0.00,,,0.00,0,Wunderground v.1.15,2013-04-26 09:39:00,
2013-04-26 05:44:00,29.2,27.4,30.29,North,32767,0.0,0.0,93,0.00,,,0.00,0,Wunderground v.1.15,2013-04-26 09:44:00,
2013-04-26 05:49:00,29.1,27.6,30.29,North,32767,0.0,0.0,94,0.00,,,0.00,0,Wunderground v.1.15,2013-04-26 09:49:00,
2013-04-26 05:54:00,29.1,27.6,30.29,North,32767,0.0,0.0,94,0.00,,,0.00,0,Wunderground v.1.15,2013-04-26 09:54:00,
2013-04-26 06:00:00,29.0,27.5,30.30,North,32767,0.0,0.0,94,0.00,,,0.00,0,Wunderground v.1.15,2013-04-26 10:00:00,
2013-04-26 06:05:00,29.0,27.5,30.30,North,32767,0.0,0.0,94,0.00,,,0.00,0,Wunderground v.1.15,2013-04-26 10:05:00,
2013-04-26 06:10:00,28.9,27.1,30.30,North,32767,0.0,0.0,93,0.00,,,0.00,0,Wunderground v.1.15,2013-04-26 10:10:00,
2013-04-26 06:16:00,28.8,27.0,30.30,North,32767,0.0,0.0,93,0.00,,,0.00,0,Wunderground v.1.15,2013-04-26 10:16:00,
2013-04-26 06:21:00,28.7,27.2,30.30,North,32767,0.0,0.0,94,0.00,,,0.00,0,Wunderground v.1.15,2013-04-26 10:21:00,
2013-04-26 06:27:00,28.6,27.1,30.30,North,32767,0.0,0.0,94,0.00,,,0.00,0,Wunderground v.1.15,2013-04-26 10:27:00,
2013-04-26 06:33:00,28.5,27.0,30.30,North,32767,0.0,0.0,94,0.00,,,0.00,0,Wunderground v.1.15,2013-04-26 10:33:00,
2013-04-26 06:38:00,28.5,27.0,30.30,North,32767,0.0,0.0,94,0.00,,,0.00,0,Wunderground v.1.15,2013-04-26 10:38:00,
2013-04-26 06:43:00,28.4,26.9,30.30,North,32767,0.0,0.0,94,0.00,,,0.00,5,Wunderground v.1.15,2013-04-26 10:43:00,
2013-04-26 06:49:00,28.4,26.9,30.30,North,32767,0.0,0.0,94,0.00,,,0.00,9,Wunderground v.1.15,2013-04-26 10:49:00,
2013-04-26 06:54:00,28.5,27.3,30.31,North,32767,0.0,0.0,95,0.00,,,0.00,11,Wunderground v.1.15,2013-04-26 10:54:00,
2013-04-26 06:59:00,28.5,27.3,30.31,North,32767,0.0,0.0,95,0.00,,,0.00,14,Wunderground v.1.15,2013-04-26 10:59:00,
2013-04-26 07:05:00,28.5,27.3,30.31,North,32767,0.0,0.0,95,0.00,,,0.00,16,Wunderground v.1.15,2013-04-26 11:05:00,
2013-04-26 07:10:00,28.6,27.4,30.31,North,32767,0.0,0.0,95,0.00,,,0.00,18,Wunderground v.1.15,2013-04-26 11:10:00,
2013-04-26 07:15:00,28.6,27.4,30.31,North,32767,0.0,0.0,95,0.00,,,0.00,19,Wunderground v.1.15,2013-04-26 11:15:00,
2013-04-26 07:21:00,28.7,27.4,30.31,North,32767,0.0,0.0,95,0.00,,,0.00,23,Wunderground v.1.15,2013-04-26 11:21:00,
2013-04-26 07:26:00,28.8,27.5,30.32,North,32767,0.0,0.0,95,0.00,,,0.00,26,Wunderground v.1.15,2013-04-26 11:26:00,
2013-04-26 07:32:00,28.9,27.6,30.32,North,32767,0.0,0.0,95,0.00,,,0.00,32,Wunderground v.1.15,2013-04-26 11:32:00,
2013-04-26 07:37:00,29.1,28.1,30.32,North,32767,0.0,0.0,96,0.00,,,0.00,37,Wunderground v.1.15,2013-04-26 11:37:00,
2013-04-26 07:42:00,29.2,28.2,30.32,North,32767,0.0,0.0,96,0.00,,,0.00,42,Wunderground v.1.15,2013-04-26 11:42:00,
2013-04-26 07:47:00,29.4,28.4,30.32,North,32767,0.0,0.0,96,0.00,,,0.00,46,Wunderground v.1.15,2013-04-26 11:47:00,
2013-04-26 07:52:00,29.7,28.7,30.32,North,32767,0.0,0.0,96,0.00,,,0.00,51,Wunderground v.1.15,2013-04-26 11:52:00,
2013-04-26 07:57:00,30.2,29.5,30.32,North,32767,0.0,0.0,97,0.00,,,0.00,54,Wunderground v.1.15,2013-04-26 11:57:00,
2013-04-26 08:02:00,30.8,30.0,30.33,North,32767,0.0,0.0,97,0.00,,,0.00,60,Wunderground v.1.15,2013-04-26 12:02:00,
2013-04-26 08:07:00,31.3,30.5,30.33,North,32767,0.0,0.0,97,0.00,,,0.00,67,Wunderground v.1.15,2013-04-26 12:07:00,
2013-04-26 08:12:00,31.9,31.1,30.33,North,32767,0.0,0.0,97,0.00,,,0.00,76,Wunderground v.1.15,2013-04-26 12:12:00,
2013-04-26 08:17:00,32.7,31.9,30.33,North,32767,0.0,0.0,97,0.00,,,0.00,77,Wunderground v.1.15,2013-04-26 12:17:00,
2013-04-26 08:22:00,33.5,33.0,30.33,North,32767,0.0,0.0,98,0.00,,,0.00,151,Wunderground v.1.15,2013-04-26 12:22:00,
2013-04-26 08:28:00,34.7,34.2,30.33,North,32767,0.0,0.0,98,0.00,,,0.00,206,Wunderground v.1.15,2013-04-26 12:28:00,
2013-04-26 08:33:00,36.3,35.5,30.33,North,32767,0.0,0.0,97,0.00,,,0.00,202,Wunderground v.1.15,2013-04-26 12:33:00,
2013-04-26 08:38:00,38.0,34.2,30.33,North,32767,0.0,0.0,86,0.00,,,0.00,190,Wunderground v.1.15,2013-04-26 12:38:00,
2013-04-26 08:43:00,39.5,34.2,30.33,North,32767,0.0,0.0,81,0.00,,,0.00,301,Wunderground v.1.15,2013-04-26 12:43:00,
2013-04-26 08:48:00,40.6,34.6,30.33,North,32767,0.0,0.0,79,0.00,,,0.00,330,Wunderground v.1.15,2013-04-26 12:48:00,
2013-04-26 08:53:00,42.0,34.0,30.33,North,32767,0.0,0.0,73,0.00,,,0.00,325,Wunderground v.1.15,2013-04-26 12:53:00,
2013-04-26 08:58:00,43.0,34.6,30.33,North,32767,0.0,0.0,72,0.00,,,0.00,367,Wunderground v.1.15,2013-04-26 12:58:00,
2013-04-26 09:03:00,44.0,34.5,30.34,North,32767,0.0,0.0,69,0.00,,,0.00,332,Wunderground v.1.15,2013-04-26 13:03:00,
2013-04-26 09:08:00,44.6,34.7,30.34,North,32767,0.0,0.0,68,0.00,,,0.00,394,Wunderground v.1.15,2013-04-26 13:08:00,
2013-04-26 09:13:00,45.1,34.8,30.33,North,32767,0.0,0.0,67,0.00,,,0.00,343,Wunderground v.1.15,2013-04-26 13:13:00,
2013-04-26 09:18:00,45.4,33.9,30.33,North,32767,0.0,0.0,64,0.00,,,0.00,422,Wunderground v.1.15,2013-04-26 13:18:00,
2013-04-26 09:23:00,45.7,34.2,30.34,North,32767,0.0,0.0,64,0.00,,,0.00,439,Wunderground v.1.15,2013-04-26 13:23:00,
2013-04-26 09:29:00,45.9,34.8,30.34,North,32767,0.0,0.0,65,0.00,,,0.00,455,Wunderground v.1.15,2013-04-26 13:29:00,
2013-04-26 09:35:00,46.1,34.6,30.34,North,32767,0.0,0.0,64,0.00,,,0.00,476,Wunderground v.1.15,2013-04-26 13:35:00,
2013-04-26 09:40:00,46.6,35.5,30.35,North,32767,0.0,0.0,65,0.00,,,0.00,482,Wunderground v.1.15,2013-04-26 13:40:00,
2013-04-26 09:45:00,47.3,34.9,30.34,North,32767,0.0,0.0,62,0.00,,,0.00,473,Wunderground v.1.15,2013-04-26 13:45:00,
2013-04-26 09:50:00,47.8,34.6,30.35,North,32767,0.0,0.0,60,0.00,,,0.00,533,Wunderground v.1.15,2013-04-26 13:50:00,
2013-04-26 09:55:00,47.8,33.7,30.35,North,32767,0.0,0.0,58,0.00,,,0.00,548,Wunderground v.1.15,2013-04-26 13:55:00,
2013-04-26 10:00:00,48.1,35.7,30.35,North,32767,0.0,0.0,62,0.00,,,0.00,571,Wunderground v.1.15,2013-04-26 14:00:00,
2013-04-26 10:05:00,48.6,35.3,30.35,North,32767,0.0,0.0,60,0.00,,,0.00,589,Wunderground v.1.15,2013-04-26 14:05:00,
2013-04-26 10:11:00,48.9,33.4,30.35,North,32767,0.0,0.0,55,0.00,,,0.00,603,Wunderground v.1.15,2013-04-26 14:11:00,
2013-04-26 10:17:00,49.0,34.9,30.36,North,32767,0.0,0.0,58,0.00,,,0.00,619,Wunderground v.1.15,2013-04-26 14:17:00,
2013-04-26 10:22:00,49.1,33.6,30.36,North,32767,0.0,0.0,55,0.00,,,0.00,631,Wunderground v.1.15,2013-04-26 14:22:00,
2013-04-26 10:27:00,49.2,35.5,30.35,North,32767,0.0,0.0,59,0.00,,,0.00,650,Wunderground v.1.15,2013-04-26 14:27:00,
2013-04-26 10:32:00,49.5,34.0,30.35,North,32767,0.0,0.0,55,0.00,,,0.00,663,Wunderground v.1.15,2013-04-26 14:32:00,
2013-04-26 10:37:00,49.9,36.1,30.35,North,32767,0.0,0.0,59,0.00,,,0.00,677,Wunderground v.1.15,2013-04-26 14:37:00,
2013-04-26 10:42:00,49.9,34.4,30.35,North,32767,0.0,0.0,55,0.00,,,0.00,691,Wunderground v.1.15,2013-04-26 14:42:00,
2013-04-26 10:48:00,49.9,33.9,30.35,North,32767,0.0,0.0,54,0.00,,,0.00,708,Wunderground v.1.15,2013-04-26 14:48:00,
2013-04-26 10:53:00,50.0,34.9,30.35,North,32767,0.0,0.0,56,0.00,,,0.00,721,Wunderground v.1.15,2013-04-26 14:53:00,
2013-04-26 10:58:00,50.3,34.3,30.35,North,32767,0.0,0.0,54,0.00,,,0.00,735,Wunderground v.1.15,2013-04-26 14:58:00,
2013-04-26 11:03:00,50.7,34.6,30.35,North,32767,0.0,0.0,54,0.00,,,0.00,740,Wunderground v.1.15,2013-04-26 15:03:00,
2013-04-26 11:08:00,51.2,34.6,30.35,North,32767,0.0,0.0,53,0.00,,,0.00,761,Wunderground v.1.15,2013-04-26 15:08:00,
2013-04-26 11:13:00,51.6,34.5,30.35,North,32767,0.0,0.0,52,0.00,,,0.00,772,Wunderground v.1.15,2013-04-26 15:13:00,
2013-04-26 11:18:00,51.9,33.8,30.35,North,32767,0.0,0.0,50,0.00,,,0.00,782,Wunderground v.1.15,2013-04-26 15:18:00,
2013-04-26 11:23:00,52.1,34.0,30.34,North,32767,0.0,0.0,50,0.00,,,0.00,795,Wunderground v.1.15,2013-04-26 15:23:00,
2013-04-26 11:29:00,52.3,33.7,30.34,North,32767,0.0,0.0,49,0.00,,,0.00,803,Wunderground v.1.15,2013-04-26 15:29:00,
2013-04-26 11:34:00,52.3,32.6,30.35,North,32767,0.0,0.0,47,0.00,,,0.00,807,Wunderground v.1.15,2013-04-26 15:34:00,
2013-04-26 11:39:00,52.0,32.9,30.34,North,32767,0.0,0.0,48,0.00,,,0.00,828,Wunderground v.1.15,2013-04-26 15:39:00,
2013-04-26 11:44:00,51.9,34.3,30.34,North,32767,0.0,0.0,51,0.00,,,0.00,837,Wunderground v.1.15,2013-04-26 15:44:00,
2013-04-26 11:49:00,52.0,34.4,30.34,North,32767,0.0,0.0,51,0.00,,,0.00,842,Wunderground v.1.15,2013-04-26 15:49:00,
2013-04-26 11:54:00,52.2,32.6,30.34,North,32767,0.0,0.0,47,0.00,,,0.00,854,Wunderground v.1.15,2013-04-26 15:54:00,
2013-04-26 11:59:00,52.3,32.6,30.34,North,32767,0.0,0.0,47,0.00,,,0.00,865,Wunderground v.1.15,2013-04-26 15:59:00,
2013-04-26 12:04:00,52.7,33.5,30.34,North,32767,0.0,0.0,48,0.00,,,0.00,868,Wunderground v.1.15,2013-04-26 16:04:00,
2013-04-26 12:09:00,53.0,33.3,30.34,North,32767,0.0,0.0,47,0.00,,,0.00,875,Wunderground v.1.15,2013-04-26 16:09:00,
2013-04-26 12:14:00,53.2,35.0,30.34,North,32767,0.0,0.0,50,0.00,,,0.00,888,Wunderground v.1.15,2013-04-26 16:14:00,
2013-04-26 12:19:00,53.7,33.4,30.34,North,32767,0.0,0.0,46,0.00,,,0.00,905,Wunderground v.1.15,2013-04-26 16:19:00,
2013-04-26 12:24:00,53.7,36.5,30.34,North,32767,0.0,0.0,52,0.00,,,0.00,877,Wunderground v.1.15,2013-04-26 16:24:00,
2013-04-26 12:29:00,53.8,36.6,30.34,North,32767,0.0,0.0,52,0.00,,,0.00,905,Wunderground v.1.15,2013-04-26 16:29:00,
2013-04-26 12:35:00,53.9,33.6,30.34,North,32767,0.0,0.0,46,0.00,,,0.00,918,Wunderground v.1.15,2013-04-26 16:35:00,
2013-04-26 12:40:00,53.7,33.4,30.34,North,32767,0.0,0.0,46,0.00,,,0.00,886,Wunderground v.1.15,2013-04-26 16:40:00,
2013-04-26 12:45:00,53.9,37.6,30.34,North,32767,0.0,0.0,54,0.00,,,0.00,925,Wunderground v.1.15,2013-04-26 16:45:00,
2013-04-26 12:50:00,54.2,35.4,30.34,North,32767,0.0,0.0,49,0.00,,,0.00,921,Wunderground v.1.15,2013-04-26 16:50:00,
2013-04-26 12:55:00,54.4,35.6,30.34,North,32767,0.0,0.0,49,0.00,,,0.00,932,Wunderground v.1.15,2013-04-26 16:55:00,
2013-04-26 13:00:00,54.5,34.1,30.34,North,32767,0.0,0.0,46,0.00,,,0.00,940,Wunderground v.1.15,2013-04-26 17:00:00,
2013-04-26 13:05:00,54.8,38.5,30.33,North,32767,0.0,0.0,54,0.00,,,0.00,953,Wunderground v.1.15,2013-04-26 17:05:00,
2013-04-26 13:10:00,55.3,38.0,30.33,North,32767,0.0,0.0,52,0.00,,,0.00,944,Wunderground v.1.15,2013-04-26 17:10:00,
2013-04-26 13:15:00,55.7,35.2,30.33,North,32767,0.0,0.0,46,0.00,,,0.00,939,Wunderground v.1.15,2013-04-26 17:15:00,
2013-04-26 13:20:00,55.8,35.9,30.33,North,32767,0.0,0.0,47,0.00,,,0.00,944,Wunderground v.1.15,2013-04-26 17:20:00,
2013-04-26 13:26:00,55.5,34.5,30.32,North,32767,0.0,0.0,45,0.00,,,0.00,944,Wunderground v.1.15,2013-04-26 17:26:00,
2013-04-26 13:31:00,55.7,37.3,30.31,North,32767,0.0,0.0,50,0.00,,,0.00,942,Wunderground v.1.15,2013-04-26 17:31:00,
2013-04-26 13:36:00,56.0,38.1,30.32,North,32767,0.0,0.0,51,0.00,,,0.00,949,Wunderground v.1.15,2013-04-26 17:36:00,
2013-04-26 13:41:00,56.3,34.6,30.31,North,32767,0.0,0.0,44,0.00,,,0.00,947,Wunderground v.1.15,2013-04-26 17:41:00,
2013-04-26 13:46:00,55.8,35.3,30.31,North,32767,0.0,0.0,46,0.00,,,0.00,949,Wunderground v.1.15,2013-04-26 17:46:00,
2013-04-26 13:52:00,55.8,34.8,30.31,North,32767,0.0,0.0,45,0.00,,,0.00,944,Wunderground v.1.15,2013-04-26 17:52:00,
2013-04-26 13:57:00,56.0,36.6,30.31,North,32767,0.0,0.0,48,0.00,,,0.00,944,Wunderground v.1.15,2013-04-26 17:57:00,
2013-04-26 14:02:00,56.3,35.2,30.31,North,32767,0.0,0.0,45,0.00,,,0.00,942,Wunderground v.1.15,2013-04-26 18:02:00,
2013-04-26 14:08:00,56.3,35.8,30.31,North,32767,0.0,0.0,46,0.00,,,0.00,932,Wunderground v.1.15,2013-04-26 18:08:00,
2013-04-26 14:13:00,56.6,36.0,30.31,North,32767,0.0,0.0,46,0.00,,,0.00,928,Wunderground v.1.15,2013-04-26 18:13:00,
2013-04-26 14:18:00,57.2,36.6,30.30,North,32767,0.0,0.0,46,0.00,,,0.00,926,Wunderground v.1.15,2013-04-26 18:18:00,
2013-04-26 14:23:00,57.3,34.4,30.30,North,32767,0.0,0.0,42,0.00,,,0.00,925,Wunderground v.1.15,2013-04-26 18:23:00,
2013-04-26 14:28:00,57.0,35.3,30.30,North,32767,0.0,0.0,44,0.00,,,0.00,919,Wunderground v.1.15,2013-04-26 18:28:00,
2013-04-26 14:33:00,56.8,33.9,30.30,North,32767,0.0,0.0,42,0.00,,,0.00,912,Wunderground v.1.15,2013-04-26 18:33:00,
2013-04-26 14:38:00,56.8,34.5,30.30,North,32767,0.0,0.0,43,0.00,,,0.00,909,Wunderground v.1.15,2013-04-26 18:38:00,
2013-04-26 14:43:00,57.2,37.1,30.30,North,32767,0.0,0.0,47,0.00,,,0.00,904,Wunderground v.1.15,2013-04-26 18:43:00,
2013-04-26 14:48:00,57.6,35.2,30.29,North,32767,0.0,0.0,43,0.00,,,0.00,900,Wunderground v.1.15,2013-04-26 18:48:00,
2013-04-26 14:53:00,57.6,35.2,30.31,North,32767,0.0,0.0,43,0.00,,,0.00,895,Wunderground v.1.15,2013-04-26 18:53:00,
2013-04-26 14:59:00,57.5,35.7,30.29,North,32767,0.0,0.0,44,0.00,,,0.00,886,Wunderground v.1.15,2013-04-26 18:59:00,
2013-04-26 15:04:00,57.7,35.9,30.29,North,32767,0.0,0.0,44,0.00,,,0.00,877,Wunderground v.1.15,2013-04-26 19:04:00,
2013-04-26 15:09:00,58.1,36.9,30.29,North,32767,0.0,0.0,45,0.00,,,0.00,793,Wunderground v.1.15,2013-04-26 19:09:00,
2013-04-26 15:14:00,58.5,35.5,30.29,North,32767,0.0,0.0,42,0.00,,,0.00,860,Wunderground v.1.15,2013-04-26 19:14:00,
2013-04-26 15:19:00,58.4,34.8,30.29,North,32767,0.0,0.0,41,0.00,,,0.00,849,Wunderground v.1.15,2013-04-26 19:19:00,
2013-04-26 15:24:00,58.5,36.1,30.29,North,32767,0.0,0.0,43,0.00,,,0.00,842,Wunderground v.1.15,2013-04-26 19:24:00,
2013-04-26 15:29:00,58.5,36.1,30.28,North,32767,0.0,0.0,43,0.00,,,0.00,831,Wunderground v.1.15,2013-04-26 19:29:00,
2013-04-26 15:34:00,58.6,36.2,30.28,North,32767,0.0,0.0,43,0.00,,,0.00,823,Wunderground v.1.15,2013-04-26 19:34:00,
2013-04-26 15:39:00,58.7,36.2,30.27,North,32767,0.0,0.0,43,0.00,,,0.00,791,Wunderground v.1.15,2013-04-26 19:39:00,
2013-04-26 15:44:00,58.7,35.7,30.27,North,32767,0.0,0.0,42,0.00,,,0.00,707,Wunderground v.1.15,2013-04-26 19:44:00,
2013-04-26 15:49:00,58.8,39.1,30.27,North,32767,0.0,0.0,48,0.00,,,0.00,791,Wunderground v.1.15,2013-04-26 19:49:00,
2013-04-26 15:55:00,58.7,36.2,30.27,North,32767,0.0,0.0,43,0.00,,,0.00,621,Wunderground v.1.15,2013-04-26 19:55:00,
2013-04-26 16:00:00,58.8,36.3,30.26,North,32767,0.0,0.0,43,0.00,,,0.00,691,Wunderground v.1.15,2013-04-26 20:00:00,
2013-04-26 16:05:00,59.0,35.9,30.26,North,32767,0.0,0.0,42,0.00,,,0.00,575,Wunderground v.1.15,2013-04-26 20:05:00,
2013-04-26 16:10:00,59.0,35.9,30.27,North,32767,0.0,0.0,42,0.00,,,0.00,503,Wunderground v.1.15,2013-04-26 20:10:00,
2013-04-26 16:15:00,59.3,36.8,30.26,North,32767,0.0,0.0,43,0.00,,,0.00,543,Wunderground v.1.15,2013-04-26 20:15:00,
2013-04-26 16:21:00,59.1,38.3,30.25,North,32767,0.0,0.0,46,0.00,,,0.00,585,Wunderground v.1.15,2013-04-26 20:21:00,
2013-04-26 16:26:00,58.9,35.8,30.25,North,32767,0.0,0.0,42,0.00,,,0.00,468,Wunderground v.1.15,2013-04-26 20:26:00,
2013-04-26 16:31:00,59.1,37.2,30.25,North,32767,0.0,0.0,44,0.00,,,0.00,524,Wunderground v.1.15,2013-04-26 20:31:00,
2013-04-26 16:37:00,59.3,35.6,30.25,North,32767,0.0,0.0,41,0.00,,,0.00,492,Wunderground v.1.15,2013-04-26 20:37:00,
2013-04-26 16:42:00,59.1,35.4,30.25,North,32767,0.0,0.0,41,0.00,,,0.00,473,Wunderground v.1.15,2013-04-26 20:42:00,
2013-04-26 16:47:00,59.2,33.6,30.25,North,32767,0.0,0.0,38,0.00,,,0.00,439,Wunderground v.1.15,2013-04-26 20:47:00,
2013-04-26 16:52:00,59.0,36.5,30.24,North,32767,0.0,0.0,43,0.00,,,0.00,325,Wunderground v.1.15,2013-04-26 20:52:00,
2013-04-26 16:57:00,58.9,36.4,30.24,North,32767,0.0,0.0,43,0.00,,,0.00,468,Wunderground v.1.15,2013-04-26 20:57:00,
2013-04-26 17:02:00,59.0,36.5,30.24,North,32767,0.0,0.0,43,0.00,,,0.00,392,Wunderground v.1.15,2013-04-26 21:02:00,
2013-04-26 17:07:00,59.0,35.3,30.24,North,32767,0.0,0.0,41,0.00,,,0.00,380,Wunderground v.1.15,2013-04-26 21:07:00,
2013-04-26 17:12:00,59.1,35.4,30.24,North,32767,0.0,0.0,41,0.00,,,0.00,316,Wunderground v.1.15,2013-04-26 21:12:00,
2013-04-26 17:17:00,59.0,35.3,30.24,North,32767,0.0,0.0,41,0.00,,,0.00,295,Wunderground v.1.15,2013-04-26 21:17:00,
2013-04-26 17:22:00,59.1,35.4,30.24,North,32767,0.0,0.0,41,0.00,,,0.00,232,Wunderground v.1.15,2013-04-26 21:22:00,
2013-04-26 17:28:00,59.0,34.7,30.24,North,32767,0.0,0.0,40,0.00,,,0.00,306,Wunderground v.1.15,2013-04-26 21:28:00,
2013-04-26 17:34:00,59.1,35.4,30.24,North,32767,0.0,0.0,41,0.00,,,0.00,309,Wunderground v.1.15,2013-04-26 21:34:00,
2013-04-26 17:39:00,59.2,36.1,30.24,North,32767,0.0,0.0,42,0.00,,,0.00,229,Wunderground v.1.15,2013-04-26 21:39:00,
2013-04-26 17:44:00,59.0,35.9,30.24,North,32767,0.0,0.0,42,0.00,,,0.00,204,Wunderground v.1.15,2013-04-26 21:44:00,
2013-04-26 17:49:00,58.7,35.7,30.24,North,32767,0.0,0.0,42,0.00,,,0.00,218,Wunderground v.1.15,2013-04-26 21:49:00,
2013-04-26 17:54:00,58.5,35.5,30.24,North,32767,0.0,0.0,42,0.00,,,0.00,237,Wunderground v.1.15,2013-04-26 21:54:00,
2013-04-26 18:00:00,58.1,36.3,30.24,North,32767,0.0,0.0,44,0.00,,,0.00,156,Wunderground v.1.15,2013-04-26 22:00:00,
2013-04-26 18:05:00,57.9,37.8,30.24,North,32767,0.0,0.0,47,0.00,,,0.00,135,Wunderground v.1.15,2013-04-26 22:05:00,
2013-04-26 18:10:00,57.8,35.4,30.25,North,32767,0.0,0.0,43,0.00,,,0.00,169,Wunderground v.1.15,2013-04-26 22:10:00,
2013-04-26 18:15:00,57.7,35.3,30.25,North,32767,0.0,0.0,43,0.00,,,0.00,107,Wunderground v.1.15,2013-04-26 22:15:00,
2013-04-26 18:20:00,57.8,36.6,30.25,North,32767,0.0,0.0,45,0.00,,,0.00,104,Wunderground v.1.15,2013-04-26 22:20:00,
2013-04-26 18:25:00,57.9,37.8,30.25,North,32767,0.0,0.0,47,0.00,,,0.00,98,Wunderground v.1.15,2013-04-26 22:25:00,
2013-04-26 18:30:00,57.8,35.4,30.25,North,32767,0.0,0.0,43,0.00,,,0.00,91,Wunderground v.1.15,2013-04-26 22:30:00,
2013-04-26 18:35:00,57.7,37.0,30.24,North,32767,0.0,0.0,46,0.00,,,0.00,100,Wunderground v.1.15,2013-04-26 22:35:00,
2013-04-26 18:41:00,57.7,35.3,30.24,North,32767,0.0,0.0,43,0.00,,,0.00,116,Wunderground v.1.15,2013-04-26 22:41:00,
2013-04-26 18:46:00,57.6,37.0,30.24,North,32767,0.0,0.0,46,0.00,,,0.00,109,Wunderground v.1.15,2013-04-26 22:46:00,
2013-04-26 18:52:00,57.5,35.7,30.24,North,32767,0.0,0.0,44,0.00,,,0.00,91,Wunderground v.1.15,2013-04-26 22:52:00,
2013-04-26 18:57:00,57.5,37.4,30.24,North,32767,0.0,0.0,47,0.00,,,0.00,84,Wunderground v.1.15,2013-04-26 22:57:00,
2013-04-26 19:03:00,57.5,35.7,30.24,North,32767,0.0,0.0,44,0.00,,,0.00,63,Wunderground v.1.15,2013-04-26 23:03:00,
2013-04-26 19:08:00,57.3,35.6,30.24,North,32767,0.0,0.0,44,0.00,,,0.00,49,Wunderground v.1.15,2013-04-26 23:08:00,
2013-04-26 19:13:00,57.2,34.9,30.23,North,32767,0.0,0.0,43,0.00,,,0.00,42,Wunderground v.1.15,2013-04-26 23:13:00,
2013-04-26 19:18:00,57.0,34.7,30.23,North,32767,0.0,0.0,43,0.00,,,0.00,39,Wunderground v.1.15,2013-04-26 23:18:00,
2013-04-26 19:23:00,56.8,37.3,30.23,North,32767,0.0,0.0,48,0.00,,,0.00,40,Wunderground v.1.15,2013-04-26 23:23:00,
2013-04-26 19:28:00,56.6,36.0,30.23,North,32767,0.0,0.0,46,0.00,,,0.00,44,Wunderground v.1.15,2013-04-26 23:28:00,
2013-04-26 19:34:00,56.4,37.5,30.23,North,32767,0.0,0.0,49,0.00,,,0.00,46,Wunderground v.1.15,2013-04-26 23:34:00,
2013-04-26 19:39:00,56.3,37.9,30.22,North,32767,0.0,0.0,50,0.00,,,0.00,44,Wunderground v.1.15,2013-04-26 23:39:00,
2013-04-26 19:44:00,56.0,38.1,30.23,North,32767,0.0,0.0,51,0.00,,,0.00,44,Wunderground v.1.15,2013-04-26 23:44:00,
2013-04-26 19:49:00,55.8,38.4,30.23,North,32767,0.0,0.0,52,0.00,,,0.00,39,Wunderground v.1.15,2013-04-26 23:49:00,
2013-04-26 19:54:00,55.7,38.8,30.23,North,32767,0.0,0.0,53,0.00,,,0.00,30,Wunderground v.1.15,2013-04-26 23:54:00,
2013-04-26 20:06:00,54.9,39.5,30.23,North,32767,0.0,0.0,56,0.00,,,0.00,16,Wunderground v.1.15,2013-04-27 00:06:00,
2013-04-26 20:11:00,54.5,39.1,30.23,North,32767,0.0,0.0,56,0.00,,,0.00,12,Wunderground v.1.15,2013-04-27 00:11:00,
2013-04-26 20:17:00,54.0,38.6,30.23,North,32767,0.0,0.0,56,0.00,,,0.00,9,Wunderground v.1.15,2013-04-27 00:17:00,
2013-04-26 20:22:00,53.5,39.1,30.24,North,32767,0.0,0.0,58,0.00,,,0.00,5,Wunderground v.1.15,2013-04-27 00:22:00,
2013-04-26 20:27:00,53.0,38.6,30.24,North,32767,0.0,0.0,58,0.00,,,0.00,0,Wunderground v.1.15,2013-04-27 00:27:00,
2013-04-26 20:32:00,52.6,38.7,30.24,North,32767,0.0,0.0,59,0.00,,,0.00,0,Wunderground v.1.15,2013-04-27 00:32:00,
2013-04-26 20:37:00,52.3,38.4,30.24,North,32767,0.0,0.0,59,0.00,,,0.00,0,Wunderground v.1.15,2013-04-27 00:37:00,
2013-04-26 20:42:00,52.1,38.6,30.24,North,32767,0.0,0.0,60,0.00,,,0.00,0,Wunderground v.1.15,2013-04-27 00:42:00,
2013-04-26 20:47:00,51.9,39.3,30.24,North,32767,0.0,0.0,62,0.00,,,0.00,0,Wunderground v.1.15,2013-04-27 00:47:00,
2013-04-26 20:53:00,51.6,39.0,30.24,North,32767,0.0,0.0,62,0.00,,,0.00,0,Wunderground v.1.15,2013-04-27 00:53:00,
2013-04-26 20:58:00,51.3,39.1,30.24,North,32767,0.0,0.0,63,0.00,,,0.00,0,Wunderground v.1.15,2013-04-27 00:58:00,
2013-04-26 21:03:00,51.0,38.8,30.24,North,32767,0.0,0.0,63,0.00,,,0.00,0,Wunderground v.1.15,2013-04-27 01:03:00,
2013-04-26 21:08:00,50.7,39.0,30.25,North,32767,0.0,0.0,64,0.00,,,0.00,0,Wunderground v.1.15,2013-04-27 01:08:00,
2013-04-26 21:14:00,50.4,38.7,30.25,North,32767,0.0,0.0,64,0.00,,,0.00,0,Wunderground v.1.15,2013-04-27 01:14:00,
2013-04-26 21:19:00,50.1,38.4,30.25,North,32767,0.0,0.0,64,0.00,,,0.00,0,Wunderground v.1.15,2013-04-27 01:19:00,
2013-04-26 21:24:00,49.9,38.6,30.25,North,32767,0.0,0.0,65,0.00,,,0.00,0,Wunderground v.1.15,2013-04-27 01:24:00,
2013-04-26 21:29:00,49.8,38.9,30.25,North,32767,0.0,0.0,66,0.00,,,0.00,0,Wunderground v.1.15,2013-04-27 01:29:00,
2013-04-26 21:35:00,49.5,38.6,30.25,North,32767,0.0,0.0,66,0.00,,,0.00,0,Wunderground v.1.15,2013-04-27 01:35:00,
2013-04-26 21:40:00,49.2,38.3,30.25,North,32767,0.0,0.0,66,0.00,,,0.00,0,Wunderground v.1.15,2013-04-27 01:40:00,
2013-04-26 21:45:00,49.0,38.5,30.25,North,32767,0.0,0.0,67,0.00,,,0.00,0,Wunderground v.1.15,2013-04-27 01:45:00,
2013-04-26 21:50:00,48.8,38.3,30.25,North,32767,0.0,0.0,67,0.00,,,0.00,0,Wunderground v.1.15,2013-04-27 01:50:00,
2013-04-26 21:55:00,48.6,38.1,30.25,North,32767,0.0,0.0,67,0.00,,,0.00,0,Wunderground v.1.15,2013-04-27 01:55:00,
2013-04-26 22:00:00,48.5,38.0,30.25,North,32767,0.0,0.0,67,0.00,,,0.00,0,Wunderground v.1.15,2013-04-27 02:00:00,
2013-04-26 22:06:00,48.2,38.1,30.25,North,32767,0.0,0.0,68,0.00,,,0.00,0,Wunderground v.1.15,2013-04-27 02:06:00,
2013-04-26 22:11:00,47.9,37.8,30.25,North,32767,0.0,0.0,68,0.00,,,0.00,0,Wunderground v.1.15,2013-04-27 02:11:00,
2013-04-26 22:17:00,47.7,38.0,30.26,North,32767,0.0,0.0,69,0.00,,,0.00,0,Wunderground v.1.15,2013-04-27 02:17:00,
2013-04-26 22:22:00,47.4,38.1,30.25,North,32767,0.0,0.0,70,0.00,,,0.00,0,Wunderground v.1.15,2013-04-27 02:22:00,
2013-04-26 22:28:00,47.1,37.8,30.25,North,32767,0.0,0.0,70,0.00,,,0.00,0,Wunderground v.1.15,2013-04-27 02:28:00,
2013-04-26 22:34:00,46.8,37.9,30.25,North,32767,0.0,0.0,71,0.00,,,0.00,0,Wunderground v.1.15,2013-04-27 02:34:00,
2013-04-26 22:40:00,46.5,37.6,30.25,North,32767,0.0,0.0,71,0.00,,,0.00,0,Wunderground v.1.15,2013-04-27 02:40:00,
2013-04-26 22:45:00,46.3,37.8,30.25,North,32767,0.0,0.0,72,0.00,,,0.00,0,Wunderground v.1.15,2013-04-27 02:45:00,
2013-04-26 22:51:00,46.1,37.9,30.25,North,32767,0.0,0.0,73,0.00,,,0.00,0,Wunderground v.1.15,2013-04-27 02:51:00,
2013-04-26 22:57:00,46.0,38.2,30.26,North,32767,0.0,0.0,74,0.00,,,0.00,0,Wunderground v.1.15,2013-04-27 02:57:00,
2013-04-26 23:02:00,45.9,37.7,30.26,North,32767,0.0,0.0,73,0.00,,,0.00,0,Wunderground v.1.15,2013-04-27 03:02:00,
2013-04-26 23:08:00,45.8,38.0,30.25,North,32767,0.0,0.0,74,0.00,,,0.00,0,Wunderground v.1.15,2013-04-27 03:08:00,
2013-04-26 23:14:00,45.6,37.8,30.25,North,32767,0.0,0.0,74,0.00,,,0.00,0,Wunderground v.1.15,2013-04-27 03:14:00,
2013-04-26 23:20:00,45.2,37.7,30.26,North,32767,0.0,0.0,75,0.00,,,0.00,0,Wunderground v.1.15,2013-04-27 03:20:00,
2013-04-26 23:26:00,44.8,37.7,30.25,North,32767,0.0,0.0,76,0.00,,,0.00,0,Wunderground v.1.15,2013-04-27 03:26:00,
2013-04-26 23:32:00,44.5,37.4,30.25,North,32767,0.0,0.0,76,0.00,,,0.00,0,Wunderground v.1.15,2013-04-27 03:32:00,
2013-04-26 23:38:00,44.1,37.3,30.25,North,32767,0.0,0.0,77,0.00,,,0.00,0,Wunderground v.1.15,2013-04-27 03:38:00,
2013-04-26 23:44:00,43.8,37.4,30.25,North,32767,0.0,0.0,78,0.00,,,0.00,0,Wunderground v.1.15,2013-04-27 03:44:00,
2013-04-26 23:50:00,43.5,37.4,30.25,North,32767,0.0,0.0,79,0.00,,,0.00,0,Wunderground v.1.15,2013-04-27 03:50:00,
2013-04-26 23:56:00,43.2,37.4,30.25,North,32767,0.0,0.0,80,0.00,,,0.00,0,Wunderground v.1.15,2013-04-27 03:56:00,